Погода в Гондэре

Эфиопия     12°36′39″N   37°28′02″E
темп.,
°C
ветер,
м/с
пор.,
м/с
влажн.,
%
обл.,
%
осадки,
мм/ч
давл.,
гПа
погр.,
м
13 июня, вс
вс1300:00+20ссв2354100 0.0 101340
03:00+20с3445100 0.0 101150
06:00+20ссв3345100 0.0 101239
09:00+27с2518100 0.0 10112841
12:00+29ссз6618100 0.0 10103762
15:00+26ссз7637100 0.1 10091578
18:00+20ссз5859100 0.0 1012531
21:00+17св1373100 0.0 1014181
14 июня, пн
пн1400:00+15ююз1184100 0.3 1018106
03:00+15ююв1183100 0.3 101582
06:00+14зюз2284100 0.0 101645
09:00+20ю3356100 0.1 1015550
12:00+26юз5538100 0.3 10112992
15:00+21с5646100 5.9 1013483
18:00+20с4548100 0.0 1011445
21:00+17ссз3572100 0.0 1015194
15 июня, вт
вт1500:00+17ссз2469100 0.0 1015265
03:00+17с1168100 0.1 101355
06:00+16ююв1172100 0.0 101511
09:00+21ю114699 0.0 1014629
12:00+27в3419100 0.0 10113320
15:00+28ю2519100 0.0 10083737
18:00+24ссз5731100 0.1 1009809
21:00+18з1356100 0.1 1014122
16 июня, ср
ср1600:00+17ююз12686 0.0 101563
03:00+16юв0176100 0.0 101448
06:00+16ссв11695 0.0 101615
09:00+22з12435 0.0 1015958
12:00+28вюв042021 0.0 10113570
15:00+27зюз3626100 0.0 10093003
18:00+23ссз894459 0.0 10111191
21:00+21ссз475297 0.0 1013349
17 июня, чт
чт1700:00+19с3552100 0.0 1014119
03:00+18с3456100 0.0 101364
06:00+17ссв2357100 0.0 101531
09:00+23ссз2440100 0.0 10151399
12:00+29с2722100 0.1 10123352
15:00+27сз6929100 0.4 10102683
18:00+22сз77547 0.2 1012852
21:00+18с3871100 0.9 1015372